Tracking 17264 objects as of 29-August-2015
HD Live streaming from Space Station

AMC-5 (GE-5)

Track AMC-5 (GE-5) now!
AMC-5 (GE-5) is classified as:


NORAD ID: 25516
Int'l Code: 1998-063B
Perigee: 36,045.2 km
Apogee: 36,073.6 km
Inclination: 4.2 °
Period: 1,449.7 minutes
Semi major axis: 42430 km
RCS: 9.3322 m2 (large)
Launch date: October 28, 1998
Source: SOCIETE EUROPEENNE DES SATELLITES (SES)

Broadband internet, business television; 16 Ku-band; CONUS
Your satellite tracking list
Your tracking list is empty





NASA's NSSDC Master Catalog

Two Line Element Set (TLE):
1 25516U 98063B   15241.01083616 -.00000217  00000-0  00000+0 0  9993
2 25516 004.1716 064.6324 0003340 084.1523 301.7234 00.99331622 61662

Source of the keplerian elements: AFSPC

N2YO: 265